Location: *
(45.8589°N, 4.7139°E)
Time: 01:52:26
(UTC+00:00)

Cosmos 1980 Rocket - Pass Details

Date: 09 April 2020
Orbit: 828 x 851 km, 71.0° (Epoch: 05 June)

Event Time Altitude Azimuth Distance (km) Brightness Sun altitude
Rises 23:21:23 0° 320° (NW) 3,390 6.0 -35.9°
Reaches altitude 10° 23:24:31 10° 303° (WNW) 2,454 5.0 -36.0°
Enters shadow 23:25:55 15° 290° (WNW) 2,144 4.5 -36.0°
